N312YH KLAX-KSAN

Flight info

Callsign N312YH
Flight time 0h 31m
Altitude 13000
Route LAXX1 MZB
Aircraft C25C/M-SDE2E3FGHRWXY/LB1

Departure

Time 2026-05-07 22:41
Airport Los Angeles International Airport (KLAX)

Arrival

Time 2026-05-07 23:13
Airport San Diego International Airport (KSAN)
Time Latitude Longitude Altitude Speed Heading
2026-05-07 22:23 33.93362 -118.39378 119 ft 0 kts 271°
2026-05-07 22:38 33.93366 -118.39384 117 ft 3 kts 326°
2026-05-07 22:38 33.93396 -118.39386 119 ft 12 kts 356°
2026-05-07 22:39 33.93499 -118.39354 118 ft 12 kts 68°
2026-05-07 22:39 33.93515 -118.39237 119 ft 16 kts 84°
2026-05-07 22:39 33.93531 -118.39083 119 ft 21 kts 83°
2026-05-07 22:39 33.93549 -118.38908 119 ft 21 kts 83°
2026-05-07 22:40 33.93566 -118.38731 118 ft 22 kts 82°
2026-05-07 22:40 33.93586 -118.38549 119 ft 22 kts 82°
2026-05-07 22:40 33.93604 -118.38365 119 ft 22 kts 84°
2026-05-07 22:40 33.93678 -118.38281 118 ft 13 kts 350°
2026-05-07 22:41 33.93725 -118.38381 119 ft 22 kts 262°
2026-05-07 22:41 33.93685 -118.38794 120 ft 93 kts 263°
2026-05-07 22:41 33.93571 -118.39892 503 ft 162 kts 260°
2026-05-07 22:41 33.93422 -118.41354 1558 ft 186 kts 262°
2026-05-07 22:42 33.93249 -118.42979 2770 ft 206 kts 260°
2026-05-07 22:42 33.92805 -118.44727 3805 ft 227 kts 250°
2026-05-07 22:42 33.92097 -118.46468 4806 ft 250 kts 243°
2026-05-07 22:42 33.91113 -118.48408 4291 ft 269 kts 235°
2026-05-07 22:43 33.90038 -118.49988 5418 ft 235 kts 231°
2026-05-07 22:43 33.88965 -118.51529 6504 ft 245 kts 231°
2026-05-07 22:43 33.87858 -118.53170 7407 ft 263 kts 232°
2026-05-07 22:43 33.86694 -118.54893 8502 ft 266 kts 231°
2026-05-07 22:44 33.85472 -118.56701 9103 ft 297 kts 231°
2026-05-07 22:44 33.84071 -118.58685 9601 ft 324 kts 229°
2026-05-07 22:44 33.83047 -118.60031 10113 ft 332 kts 227°
2026-05-07 22:44 33.80930 -118.62633 11630 ft 317 kts 226°
2026-05-07 22:45 33.79936 -118.63871 11627 ft 305 kts 227°
2026-05-07 22:45 33.78358 -118.65454 11542 ft 290 kts 209°
2026-05-07 22:45 33.75818 -118.66119 11089 ft 292 kts 170°
2026-05-07 22:45 33.73960 -118.65209 11003 ft 289 kts 140°
2026-05-07 22:46 33.72635 -118.63454 11036 ft 282 kts 122°
2026-05-07 22:46 33.71881 -118.62156 11094 ft 280 kts 121°
2026-05-07 22:46 33.70764 -118.60217 11024 ft 284 kts 121°
2026-05-07 22:46 33.69628 -118.58269 10987 ft 285 kts 122°
2026-05-07 22:47 33.68476 -118.56321 10953 ft 286 kts 122°
2026-05-07 22:47 33.67333 -118.54412 10997 ft 284 kts 122°
2026-05-07 22:47 33.66190 -118.52477 11050 ft 282 kts 122°
2026-05-07 22:47 33.65001 -118.50496 11056 ft 306 kts 123°
2026-05-07 22:48 33.63702 -118.48342 11041 ft 324 kts 123°
2026-05-07 22:48 33.62385 -118.46184 11016 ft 317 kts 123°
2026-05-07 22:48 33.61124 -118.44036 10982 ft 311 kts 121°
2026-05-07 22:48 33.59910 -118.41942 11088 ft 302 kts 122°
2026-05-07 22:49 33.58639 -118.39941 11036 ft 301 kts 126°
2026-05-07 22:49 33.57386 -118.37959 11144 ft 292 kts 122°
2026-05-07 22:49 33.56239 -118.35950 11623 ft 300 kts 119°
2026-05-07 22:49 33.55113 -118.33749 12206 ft 316 kts 117°
2026-05-07 22:50 33.54132 -118.31373 12890 ft 324 kts 110°
2026-05-07 22:50 33.53194 -118.28830 12933 ft 346 kts 112°
2026-05-07 22:50 33.52032 -118.26283 13026 ft 348 kts 117°
2026-05-07 22:50 33.50706 -118.23863 13060 ft 347 kts 122°
2026-05-07 22:51 33.49314 -118.21488 12969 ft 348 kts 121°
2026-05-07 22:51 33.47970 -118.19131 12985 ft 347 kts 121°
2026-05-07 22:51 33.46641 -118.16737 13131 ft 341 kts 120°
2026-05-07 22:51 33.45350 -118.14347 13064 ft 343 kts 119°
2026-05-07 22:52 33.44091 -118.11916 13015 ft 344 kts 117°
2026-05-07 22:52 33.42905 -118.09434 12952 ft 345 kts 115°
2026-05-07 22:52 33.41788 -118.06906 12997 ft 342 kts 114°
2026-05-07 22:52 33.40655 -118.04404 13023 ft 342 kts 116°
2026-05-07 22:53 33.39444 -118.01937 12991 ft 344 kts 119°
2026-05-07 22:53 33.38096 -117.99569 12994 ft 344 kts 121°
2026-05-07 22:53 33.36822 -117.97151 12994 ft 343 kts 117°
2026-05-07 22:53 33.35602 -117.94691 12994 ft 343 kts 117°
2026-05-07 22:54 33.34367 -117.92246 12991 ft 344 kts 118°
2026-05-07 22:54 33.33111 -117.89813 12992 ft 344 kts 118°
2026-05-07 22:54 33.31846 -117.87371 12982 ft 345 kts 118°
2026-05-07 22:54 33.30588 -117.84920 12967 ft 346 kts 118°
2026-05-07 22:55 33.29331 -117.82460 12971 ft 347 kts 118°
2026-05-07 22:55 33.28058 -117.79995 12971 ft 347 kts 118°
2026-05-07 22:55 33.26793 -117.77535 12970 ft 347 kts 118°
2026-05-07 22:55 33.25539 -117.75109 12972 ft 347 kts 118°
2026-05-07 22:56 33.24262 -117.72618 12971 ft 347 kts 118°
2026-05-07 22:56 33.22993 -117.70166 12969 ft 347 kts 118°
2026-05-07 22:56 33.21728 -117.67713 12972 ft 347 kts 118°
2026-05-07 22:56 33.20458 -117.65256 12972 ft 347 kts 118°
2026-05-07 22:57 33.19206 -117.62833 12972 ft 347 kts 118°
2026-05-07 22:57 33.17939 -117.60383 12975 ft 347 kts 118°
2026-05-07 22:57 33.16654 -117.57901 12975 ft 347 kts 118°
2026-05-07 22:57 33.15402 -117.55481 12975 ft 347 kts 118°
2026-05-07 22:58 33.14155 -117.53085 12912 ft 328 kts 118°
2026-05-07 22:58 33.12984 -117.50828 12583 ft 310 kts 118°
2026-05-07 22:58 33.11858 -117.48662 12215 ft 298 kts 118°
2026-05-07 22:58 33.10802 -117.46612 11865 ft 294 kts 118°
2026-05-07 22:59 33.09705 -117.44492 11505 ft 297 kts 118°
2026-05-07 22:59 33.08620 -117.42402 11150 ft 295 kts 118°
2026-05-07 22:59 33.07550 -117.40348 10794 ft 295 kts 118°
2026-05-07 22:59 33.06468 -117.38270 10445 ft 296 kts 118°
2026-05-07 23:00 33.05418 -117.36248 10108 ft 296 kts 118°
2026-05-07 23:00 33.04277 -117.34203 9733 ft 299 kts 126°
2026-05-07 23:00 33.02578 -117.32751 9305 ft 306 kts 152°
2026-05-07 23:00 33.00594 -117.31827 8929 ft 306 kts 158°
2026-05-07 23:01 32.98574 -117.31031 8549 ft 305 kts 160°
2026-05-07 23:01 32.96596 -117.30245 8175 ft 292 kts 159°
2026-05-07 23:01 32.94695 -117.29441 7816 ft 288 kts 158°
2026-05-07 23:01 32.92830 -117.28644 7447 ft 281 kts 158°
2026-05-07 23:02 32.91001 -117.27880 7089 ft 277 kts 159°
2026-05-07 23:02 32.89176 -117.27119 6727 ft 278 kts 159°
2026-05-07 23:02 32.87332 -117.26349 6368 ft 282 kts 159°
2026-05-07 23:02 32.85477 -117.25571 5996 ft 283 kts 159°
2026-05-07 23:03 32.83609 -117.24792 5620 ft 284 kts 160°
2026-05-07 23:03 32.81775 -117.24026 5249 ft 273 kts 159°
2026-05-07 23:03 32.80055 -117.23271 5038 ft 254 kts 154°
2026-05-07 23:03 32.78899 -117.21854 4959 ft 234 kts 113°
2026-05-07 23:04 32.78453 -117.20061 4967 ft 222 kts 103°
2026-05-07 23:04 32.78103 -117.18298 4968 ft 225 kts 101°
2026-05-07 23:04 32.77761 -117.16455 4960 ft 232 kts 101°
2026-05-07 23:04 32.77414 -117.14568 4962 ft 236 kts 101°
2026-05-07 23:05 32.77065 -117.12649 4968 ft 238 kts 101°
2026-05-07 23:05 32.76717 -117.10755 4967 ft 229 kts 101°
2026-05-07 23:05 32.76385 -117.08937 4963 ft 222 kts 101°
2026-05-07 23:05 32.76060 -117.07156 4961 ft 220 kts 101°
2026-05-07 23:06 32.75732 -117.05363 4961 ft 224 kts 101°
2026-05-07 23:06 32.75402 -117.03539 4875 ft 229 kts 101°
2026-05-07 23:06 32.75069 -117.01697 4510 ft 226 kts 101°
2026-05-07 23:06 32.74744 -116.99879 4141 ft 224 kts 101°
2026-05-07 23:07 32.74425 -116.98067 3856 ft 224 kts 101°
2026-05-07 23:07 32.74110 -116.96282 3782 ft 218 kts 101°
2026-05-07 23:07 32.73603 -116.94623 3739 ft 215 kts 127°
2026-05-07 23:07 32.72338 -116.93795 3737 ft 211 kts 173°
2026-05-07 23:08 32.70973 -116.94235 3745 ft 205 kts 218°
2026-05-07 23:08 32.70211 -116.95614 3751 ft 201 kts 249°
2026-05-07 23:08 32.69701 -116.97154 3754 ft 201 kts 250°
2026-05-07 23:08 32.69227 -116.98706 3724 ft 200 kts 256°
2026-05-07 23:09 32.69026 -117.00365 3553 ft 206 kts 265°
2026-05-07 23:09 32.68999 -117.00943 3468 ft 208 kts 271°
2026-05-07 23:11 32.71312 -117.10690 2135 ft 130 kts 285°
2026-05-07 23:11 32.71571 -117.11696 1831 ft 125 kts 289°
2026-05-07 23:11 32.71824 -117.12671 1561 ft 122 kts 287°
2026-05-07 23:11 32.72066 -117.13646 1268 ft 123 kts 286°
2026-05-07 23:12 32.72297 -117.14609 998 ft 119 kts 286°
2026-05-07 23:12 32.72527 -117.15547 737 ft 118 kts 284°
2026-05-07 23:12 32.72747 -117.16479 480 ft 118 kts 284°
2026-05-07 23:12 32.72979 -117.17428 141 ft 118 kts 285°
2026-05-07 23:13 32.73189 -117.18279 19 ft 92 kts 285°
2026-05-07 23:13 32.73302 -117.18737 17 ft 20 kts 290°
2026-05-07 23:13 32.73362 -117.18812 16 ft 20 kts 351°
2026-05-07 23:13 32.73406 -117.18704 15 ft 22 kts 103°
2026-05-07 23:14 32.73355 -117.18489 21 ft 22 kts 106°
2026-05-07 23:14 32.73310 -117.18304 17 ft 26 kts 106°
2026-05-07 23:14 32.73261 -117.18093 17 ft 27 kts 106°
2026-05-07 23:14 32.73352 -117.17951 20 ft 25 kts 20°
2026-05-07 23:15 32.73410 -117.17978 21 ft 7 kts 205°
2026-05-07 23:15 32.73383 -117.17981 21 ft 0 kts 160°